Location: Newark
(27.9675°N, 86.8869°E)
Time: 23:32:05
(UTC+00:00)

Courier 1B Rocket - Pass Details

Date: 15 October 2019
Orbit: 920 x 1202 km, 28.2° (Epoch: 14 November)

Event Time Altitude Azimuth Distance (km) Brightness Sun altitude
Rises 20:14:16 0° 206° (SSW) 3,557 - -52.6°
Reaches altitude 10° 20:18:00 10° 185° (S) 2,600 - -51.8°
Maximum altitude 20:21:34 16° 150° (SSE) 2,213 - -51.1°
Drops below altitude 10° 20:25:08 10° 114° (ESE) 2,611 - -50.4°
Exits shadow 20:26:44 - 103° (ESE) 2,984 8.0 -50.1°
Sets 20:28:52 0° 93° (E) 3,581 8.5 -49.6°
